TimeEDT,TemperatureF,Dew PointF,Humidity,Sea Level PressureIn,VisibilityMPH,Wind Direction,Wind SpeedMPH,Gust SpeedMPH,PrecipitationIn,Events,Conditions,WindDirDegrees,DateUTC
12:51 AM,46.9,39.9,77,29.84,10.0,NW,17.3,35.7,0.00,,Overcast,310,2014-03-31 04:51:00
1:51 AM,46.9,39.0,74,29.84,10.0,NW,16.1,31.1,N/A,,Overcast,320,2014-03-31 05:51:00
2:51 AM,46.9,39.0,74,29.84,10.0,NW,16.1,26.5,N/A,,Overcast,320,2014-03-31 06:51:00
3:51 AM,46.9,37.9,71,29.84,10.0,NW,18.4,31.1,N/A,,Overcast,320,2014-03-31 07:51:00
4:51 AM,46.9,37.0,68,29.85,10.0,NW,17.3,26.5,N/A,,Overcast,310,2014-03-31 08:51:00
5:51 AM,46.9,35.1,63,29.86,10.0,NW,17.3,29.9,N/A,,Overcast,320,2014-03-31 09:51:00
6:51 AM,46.9,34.0,61,29.89,10.0,NNW,17.3,35.7,N/A,,Overcast,330,2014-03-31 10:51:00
7:51 AM,46.9,34.0,61,29.93,10.0,NNW,15.0,28.8,N/A,,Overcast,330,2014-03-31 11:51:00
8:51 AM,46.9,35.1,63,29.95,10.0,NNW,15.0,25.3,N/A,,Overcast,330,2014-03-31 12:51:00
9:51 AM,46.9,34.0,61,29.97,10.0,NNW,11.5,24.2,N/A,,Overcast,330,2014-03-31 13:51:00
10:51 AM,48.9,35.1,59,29.99,10.0,NNW,11.5,21.9,N/A,,Scattered Clouds,340,2014-03-31 14:51:00
11:51 AM,52.0,35.1,53,29.99,10.0,Variable,6.9,24.2,N/A,,Clear,0,2014-03-31 15:51:00
12:51 PM,53.1,37.0,55,30.00,10.0,NNW,10.4,19.6,N/A,,Clear,340,2014-03-31 16:51:00
1:51 PM,55.9,37.9,51,29.99,10.0,NNW,10.4,17.3,N/A,,Clear,340,2014-03-31 17:51:00
2:51 PM,55.0,39.9,57,30.00,10.0,NE,11.5,-,N/A,,Clear,50,2014-03-31 18:51:00
3:51 PM,54.0,39.9,59,30.00,10.0,NE,8.1,-,N/A,,Clear,40,2014-03-31 19:51:00
4:51 PM,53.1,39.0,59,30.00,10.0,NE,8.1,-,N/A,,Clear,40,2014-03-31 20:51:00
5:51 PM,52.0,39.0,61,30.02,10.0,Variable,4.6,-,N/A,,Clear,0,2014-03-31 21:51:00
6:51 PM,50.0,37.9,63,30.02,10.0,Variable,3.5,-,N/A,,Clear,0,2014-03-31 22:51:00
7:51 PM,44.1,37.0,76,30.03,10.0,East,5.8,-,N/A,,Clear,80,2014-03-31 23:51:00
8:51 PM,42.1,37.0,82,30.06,10.0,Calm,Calm,-,N/A,,Clear,0,2014-04-01 00:51:00
9:51 PM,39.9,37.0,89,30.08,10.0,Calm,Calm,-,N/A,,Clear,0,2014-04-01 01:51:00
10:51 PM,39.0,37.0,93,30.10,10.0,Calm,Calm,-,N/A,,Clear,0,2014-04-01 02:51:00
11:51 PM,39.0,36.0,89,30.11,10.0,Calm,Calm,-,N/A,,Clear,0,2014-04-01 03:51:00